Regional Weather Roundup
Issued by NWS Charleston, WV

Home | Current Version | Previous Version | Graphics & Text | Print | Product List | Glossary On
Versions: 1 2 3 4 5 6 7 8 9 10 11 12 13 14 15 16 17 18 19 20 21 22 23 24 25 26 27 28 29 30 31 32 33 34 35 36 37 38 39 40 41 42 43 44 45 46 47 48 49 50
077
ASUS41 KRLX 241010
RWRRLX
West Virginia Regional Weather Roundup
National Weather Service Charleston WV
600 AM EDT SUN SEP 24 2017

Note: "fair" indicates few or no clouds below 12,000 feet with no
significant weather and/or obstructions to visibility.

WVZ003-241100-
Northern Panhandle of West Virginia

CITY           SKY/WX    TMP DP  RH WIND       PRES   REMARKS
WHEELING       CLEAR     61  59  93 CALM      30.16R
$$

WVZ009-241100-
Northwest West Virginia

CITY           SKY/WX    TMP DP  RH WIND       PRES   REMARKS
PARKERSBURG    CLEAR     59  58  96 CALM      30.16S
$$

WVZ006-241100-
Western West Virginia

CITY           SKY/WX    TMP DP  RH WIND       PRES   REMARKS
HUNTINGTON     CLEAR     60  58  92 CALM      30.11R
$$

WVZ015-241100-
West Central West Virginia

CITY           SKY/WX    TMP DP  RH WIND       PRES   REMARKS
CHARLESTON     PTCLDY    55  53  93 CALM      30.13R FOG
$$

WVZ022-031-241100-
North Central West Virginia

CITY           SKY/WX    TMP DP  RH WIND       PRES   REMARKS
CLARKSBURG     CLEAR     57  55  93 CALM      30.16R FOG
MORGANTOWN     CLEAR     59  56  89 CALM      30.17R
$$

WVZ025-035-042-045-241100-
Southern West Virginia

CITY           SKY/WX    TMP DP  RH WIND       PRES   REMARKS
BECKLEY        PTCLDY    55  49  80 CALM      30.20R
LOGAN            N/A     63  57  82 CALM      30.14S
BLUEFIELD      PTCLDY    60  50  69 E3        30.21S
LEWISBURG      PTCLDY    48  47  94 NE3       30.21R
$$

WVZ047-241100-
Northern Mountains of West Virginia

CITY           SKY/WX    TMP DP  RH WIND       PRES   REMARKS
ELKINS         PTCLDY    48  45  89 CALM      30.22S FOG
$$

WVZ052-241100-
Eastern Panhandle of West Virginia

CITY           SKY/WX    TMP DP  RH WIND       PRES   REMARKS
MARTINSBURG    CLEAR     55  54  96 CALM      30.13R
PETERSBURG     CLEAR     53  53  97 CALM      30.18R
$$




USA.gov is the U.S. government's official web portal to all federal, state and local government web resources and services.